Location: Lynch Observatory
(39.9540°N, 75.1861°W)
Time: 04:52:33
(UTC-04:00)

DOVE 4 - Pass Details

Date: 03 May 2024
Orbit: 576 x 761 km, 97.7° (Epoch: 21 May)

Event Time Altitude Azimuth Distance (km) Brightness Sun altitude
Rises 00:01:19 0° 351° (N) 2,973 ? -32.7°
Reaches altitude 10° 00:04:24 10° 328° (NNW) 2,098 ? -32.9°
Maximum altitude 00:06:52 15° 295° (WNW) 1,837 ? -33.0°
Enters shadow 00:07:41 14° 283° (WNW) 1,880 ? -33.0°
